Regional Weather Roundup
Issued by NWS

Home | Current Version | Previous Version | Graphics & Text | Print | Product List | Glossary On
Versions: 1 2 3 4 5 6 7 8 9 10 11 12 13 14 15 16 17 18 19 20 21 22 23 24 25 26 27 28 29 30 31 32 33 34 35 36 37 38 39 40 41 42 43 44 45 46 47 48 49 50
000
ASUS43 KOAX 230910
RWRNE

WEATHER ROUNDUP FOR NEBRASKA
NATIONAL WEATHER SERVICE OMAHA NE
300 AM CST THU NOV 23 2017

NOTES: SATELLITE DATA IS BEING USED TO AUGMENT CLOUD COVER ABOVE
       12000 FEET.
       "FAIR" INDICATES FEW OR NO CLOUDS BELOW 12,000 FEET WITH NO
       SIGNIFICANT WEATHER AND/OR OBSTRUCTIONS TO VISIBILITY.


NEZ001>004-019>022-054>056-231000-
NEBRASKA PANHANDLE

CITY           SKY/WX    TMP DP  RH WIND       PRES   REMARKS
SCOTTSBLUFF    CLOUDY    38  34  85 NW6       30.17S WCI  33
ALLIANCE       CLEAR     33  32  96 W9        30.13F WCI  25
CHADRON        CLEAR     39  36  89 SW8       30.10F WCI  33
GORDON         FAIR      42  37  79 W8        30.08S
KIMBALL        CLOUDY    47  38  71 W15       30.20S
SIDNEY         CLOUDY    46  39  76 NW13      30.18S
$$

NEZ057>060-069>072-079>082-231000-
SOUTHWEST NEBRASKA

CITY           SKY/WX    TMP DP  RH WIND       PRES   REMARKS
NORTH PLATTE   CLEAR     33  31  92 NW7       30.11R WCI  27
IMPERIAL       CLOUDY    44  39  82 NW8       30.14R
LEXINGTON      CLEAR     35  32  89 W6        30.08S WCI  30
MCCOOK         CLOUDY    41  36  82 W9        30.10R
OGALLALA       CLEAR     49  40  71 CALM      30.13S
$$

NEZ005>010-023>029-035>040-094-231000-
NORTH CENTRAL NEBRASKA

CITY           SKY/WX    TMP DP  RH WIND       PRES   REMARKS
VALENTINE      CLEAR     38  34  85 W6        30.05R WCI  33
AINSWORTH      CLEAR     41  36  82 W3        30.05R
BROKEN BOW     CLEAR     49  37  63 CALM      30.06R
O`NEILL        CLEAR     41  36  83 W7        30.03S
ORD            CLEAR     34  32  92 W3        30.04R
THEDFORD       CLEAR     37  33  88 W3        30.09S
$$

NEZ041-046>049-061>064-073>077-083>087-231000-
SOUTH CENTRAL NEBRASKA

CITY           SKY/WX    TMP DP  RH WIND       PRES   REMARKS
GRAND ISLAND   CLEAR     40  35  83 W9        30.04S WCI  34
AURORA         CLEAR     41  33  74 NW9       30.03S
HASTINGS       CLEAR     41  33  73 W3        30.04S
HEBRON         CLEAR     38  26  61 W3        30.03S
HOLDREGE       CLEAR     41  35  79 W7        30.07R
KEARNEY        CLEAR     40  34  79 NW8       30.06S WCI  34
YORK           CLEAR     41  34  75 NW13      30.02S
$$

NEZ011>018-030>034-042>045-231000-
NORTHEAST NEBRASKA

CITY           SKY/WX    TMP DP  RH WIND       PRES   REMARKS
NORFOLK        CLEAR     38  33  82 W8        30.00R WCI  32
ALBION         CLEAR     39  34  81 NW8       30.02R WCI  34
BLAIR          CLEAR     36  25  63 W6        29.98R WCI  32
COLUMBUS       CLEAR     35  27  72 W3        30.01R
FREMONT        CLEAR     32  25  75 W5        30.00R WCI  28
TEKAMAH        CLEAR     27  19  72 SE6       29.99R WCI  20
WAYNE          CLEAR     40  33  75 NW8       30.00R WCI  35
$$

NEZ050>053-065>068-078-088>093-231000-
SOUTHEAST NEBRASKA

CITY           SKY/WX    TMP DP  RH WIND       PRES   REMARKS
LINCOLN        CLEAR     32  24  72 SW5       30.03R WCI  27
OMAHA EPPLEY   CLEAR     31  21  66 S5        30.00R WCI  26
BEATRICE       CLEAR     32  24  70 CALM      30.03S
FALLS CITY     CLEAR     34  21  59 S6        30.02F WCI  29
NEBRASKA CITY  CLEAR     36  24  62 SW6       30.00S WCI  31
PLATTSMOUTH    CLEAR     31  23  70 SW6       29.99S WCI  26
$$

NEZ044-045-051>053-067-231000-
OMAHA AREA

CITY           SKY/WX    TMP DP  RH WIND       PRES   REMARKS
OMAHA EPPLEY   CLEAR     31  21  66 S5        30.00R WCI  26
BLAIR          CLEAR     36  25  63 W6        29.98R WCI  32
FREMONT        CLEAR     32  25  75 W5        30.00R WCI  28
MILLARD        CLEAR     31  23  72 CALM      30.00R
OFFUTT AFB     CLEAR     27  20  76 CALM      29.99S
PLATTSMOUTH    CLEAR     31  23  70 SW6       29.99S WCI  26
WAHOO          FAIR      32  22  66 CALM      30.00R
$$




USA.gov is the U.S. government's official web portal to all federal, state and local government web resources and services.